ARIANE 5 DEB, 43384

Orbit data source: Space-Track

ARIANE 5 DEB, 43384 is space debris in HEO originally from a launch on Thu, 12 Jun 2008 UTC launched from the French Guiana (FRGUI). Debris objects in space refer to the collection of defunct objects orbiting the Earth. Examples of debris include non-operational satellites, rocket bodies, and fragments generated from explosions, collisions, or faulty payload assembly.

Loading next visibility...
Identifier
43384, 2008-030G
Orbit
HEO
Country
Flag of FRFR
Related business
Manufacturer
Thales Alenia
Mission
Spacecraft
Bus & Motor
Unknown
Mass
Unknown
Launch date (UTC)
2008-06-12 (18 years ago)
Launch vehicle
Unknown
Launch site
French Guiana (FRGUI)
Object type
Payload
Rocket body
Debris
Shape & HBR
Unknown shape, 1.1 m
Radar Cross Section
Medium (>0.1 m² and <1 m²)

Expand to show TLE details & history
Last TLE update: 4 days ago

TLE from 4 days ago
0 ARIANE 5 DEB
1 43384U 08030G   26251.17190239 -.00000101  00000-0  30261-3 0  9999
2 43384   1.8061 257.0261 7188372 126.8765 321.6327  2.31040587148124
Epoch: 2026-09-08T04:07Z
TLE epoch observation values (Epoch: 2026-09-08T04:07:32.366Z)
Latitude
Longitude
-152.67424°
Altitude
14,336.954 km
Speed
4.689 km/s
True Right ascension
17h 05m 48s
True Declination
0° 00' 00"
Sunlit
Object was in daylight at epoch
Visualization orbit readout
Latitude
Unknown
Longitude
Unknown
Altitude
Unknown
Speed
Unknown
Apparent Right ascension
Unknown
Apparent Declination
Unknown
Sunlit
N/A
Visualization observer readout
Local Sidereal Time
08:22:51
Azimuth
Unknown
Elevation
Unknown
Doppler factor
Unknown
Orbital elements
Apogee altitude
35,175.462 km
Perigee altitude
419.09 km
Semi-major axis
24,175.413 km
Eccentricity
0.71884
Inclination
1.8061°
RAAN
257.0261°
Arg. of periapsis
126.8765°
True anomaly
232.45848°
Mean anomaly
321.6327°
Eccentric anomaly
281.23575°
Mean motion
0.57741 °/min
Orbital period
623.48 mins
BSTAR
0.00030261
Loading maneuver chart data...
Computing Atmospheric mass density...
Loading historical data...
Loading historical data...
Loading historical data...
Loading historical data...
Loading historical data...
Loading historical data...
Loading historical data...

Documentation

Showing up to 5 results
|